Location: Unspecified
(0.0000°N, 0.0000°E)
Time: 14:17:15
(UTC+00:00)

SR - All Passes

Search period start: 21 February 2019 00:00
Search period end: 03 March 2019 00:00
Orbit: 583 x 874 km, 66.7° (Epoch: 20 February)

Date Brightness Start Highest point End Pass type
(mag) Time Alt. Az. Time Alt. Az. Time Alt. Az.
21 Feb - 06:44:47 10° SSE 06:48:34 18° ESE 06:52:12 10° ENE daylight
21 Feb - 08:25:22 10° SW 08:30:29 34° WNW 08:35:18 10° N daylight
21 Feb - 19:09:57 10° N 19:13:52 32° ENE 19:18:00 10° SE visible
21 Feb - 20:54:50 10° W 20:55:45 10° WSW 20:56:40 10° SW visible
22 Feb - 07:35:13 10° SSW 07:41:00 84° WNW 07:46:23 10° NNE daylight
22 Feb - 18:23:04 10° NE 18:24:25 11° ENE 18:25:50 10° E daylight
22 Feb - 20:02:14 10° NW 20:06:06 30° WSW 20:10:13 10° S visible
23 Feb - 06:46:05 10° S 06:51:26 39° ESE 06:56:28 10° NE daylight
23 Feb - 08:30:10 10° WSW 08:33:11 15° WNW 08:36:07 10° NW daylight
23 Feb - 19:12:10 10° NNW 19:16:32 89° W 19:21:16 10° SSE visible
24 Feb - 05:58:18 10° SSE 06:01:47 16° ESE 06:05:09 10° ENE daylight
24 Feb - 07:38:31 10° SW 07:43:44 36° WNW 07:48:37 10° N daylight
24 Feb - 18:23:15 10° N 18:27:05 30° ENE 18:31:08 10° SE daylight
24 Feb - 20:07:19 10° W 20:08:57 12° WSW 20:10:38 10° SW visible
25 Feb - 06:48:28 10° SSW 06:54:14 90° ESE 06:59:36 10° NNE daylight
25 Feb - 17:37:02 10° ENE 17:37:39 10° ENE 17:38:14 10° E daylight
25 Feb - 19:15:20 10° NW 19:19:18 33° WSW 19:23:33 10° S visible
26 Feb - 05:59:25 10° S 06:04:40 36° ESE 06:09:36 10° NE daylight
26 Feb - 07:43:08 10° WSW 07:46:25 16° WNW 07:49:36 10° NW daylight
26 Feb - 18:25:22 10° NNW 18:29:45 83° ENE 18:34:30 10° SSE daylight
27 Feb - 05:11:51 10° SE 05:15:00 15° ESE 05:18:04 10° ENE visible
27 Feb - 06:51:41 10° SW 06:56:58 39° WNW 07:01:54 10° N daylight
27 Feb - 17:36:33 10° NNE 17:40:18 27° ENE 17:44:16 10° SE daylight
27 Feb - 19:20:02 10° W 19:22:09 13° WSW 19:24:19 10° SW visible
28 Feb - 06:01:43 10° SSW 06:07:28 84° ESE 06:12:49 10° NNE daylight
28 Feb - 18:28:26 10° NW 18:32:30 36° WSW 18:36:52 10° S visible
01 Mar - 05:12:45 10° S 05:17:54 34° ESE 05:22:43 10° NE visible
01 Mar - 06:56:08 10° WSW 06:59:40 17° WNW 07:03:03 10° NNW daylight
01 Mar - 17:38:34 10° NNW 17:42:58 76° ENE 17:47:43 10° SSE daylight
02 Mar - 04:25:27 10° SE 04:28:14 14° ESE 04:30:57 10° E visible
02 Mar - 06:04:52 10° SW 06:10:12 42° WNW 06:15:11 10° N daylight
02 Mar - 16:49:52 10° NNE 16:53:31 25° ENE 16:57:23 10° SE daylight
02 Mar - 18:32:52 10° W 18:35:21 14° WSW 18:37:55 10° SW visible
